DMSP 5D-2 F13 DEB, 40497

Orbit data source: Space-Track

DMSP 5D-2 F13 DEB, 40497 is space debris in SSO originally from a launch on Fri, 24 Mar 1995 UTC launched from the Air Force Western Test Range (AFWTR). Debris objects in space refer to the collection of defunct objects orbiting the Earth. Examples of debris include non-operational satellites, rocket bodies, and fragments generated from explosions, collisions, or faulty payload assembly.

Loading next visibility...
Identifier
40497, 1995-015CL
Orbit
SSO
Country
Flag of USUS
Related business
Manufacturer
Unknown
Mission
Spacecraft
Bus & Motor
Unknown
Mass
Unknown
Launch date (UTC)
1995-03-24 (31 years ago)
Launch vehicle
Unknown
Launch site
Air Force Western Test Range (AFWTR)
Object type
Payload
Rocket body
Debris
Shape & HBR
Unknown shape, 0.1 m
Radar Cross Section
Small (<0.1 m²)

Expand to show TLE details & history
Last TLE update: 2 days ago

TLE from 2 days ago
0 DMSP 5D-2 F13 DEB
1 40497U 95015CL  26162.37271294  .00003803  00000-0  11636-2 0  9999
2 40497  98.6746 204.1394 0004232  51.7672 308.3898 14.42384585584569
Epoch: 2026-06-11T08:56Z
TLE epoch observation values (Epoch: 2026-06-11T08:56:42.398Z)
Latitude
0.00007°
Longitude
170.24528°
Altitude
751.704 km
Speed
7.48 km/s
True Right ascension
13h 36m 33s
True Declination
0° 00' 00"
Sunlit
Object was in full shadow at epoch
Visualization orbit readout
Latitude
Unknown
Longitude
Unknown
Altitude
Unknown
Speed
Unknown
Apparent Right ascension
Unknown
Apparent Declination
Unknown
Sunlit
N/A
Visualization observer readout
Local Sidereal Time
13:27:04
Azimuth
Unknown
Elevation
Unknown
Doppler factor
Unknown
Orbital elements
Apogee altitude
750.773 km
Perigee altitude
744.742 km
Semi-major axis
7,125.895 km
Eccentricity
0.00042
Inclination
98.6746°
RAAN
204.1394°
Arg. of periapsis
51.7672°
True anomaly
308.35178°
Mean anomaly
308.3898°
Eccentric anomaly
308.37079°
Mean motion
3.60815 °/min
Orbital period
99.77 mins
BSTAR
0.0011636

Documentation

Showing up to 5 results
|